Tracking 25710 objects as of 6-Jul-2022
HD Live streaming from Space Station
objects crossing your sky now

STARLINK-3593

Track STARLINK-3593 now!
10-day predictions
STARLINK-3593 is classified as:


NORAD ID: 51896
Int'l Code: 2022-022AW
Perigee: 545.6 km
Apogee: 548.1 km
Inclination: 53.2 °
Period: 95.4 minutes
Semi major axis: 6917 km
RCS: Unknown
Launch date: March 3, 2022
Source: United States (US)
Launch site: AIR FORCE EASTERN TEST RANGE (AFETR)
aabbcc
Your satellite tracking list
Your tracking list is empty




NASA's NSSDC Master Catalog

Two Line Element Set (TLE):
1 51896U 22022AW  22186.91667824 -.00028902  00000-0 -18044-2 0  9991
2 51896  53.2151 267.0456 0001763  48.2685 319.2796 15.08853839  1309
Source of the keplerian elements: AFSPC